Simultaneous Nadir Overpasses (SNOs) Predictions

Prediction of SNOs between AQUA and GOES-15 Satellite Orbit:

Table of predicted SNOs for the next 14.0 days since TLE Epoch: 7/7/2017
Index Date Time (AQUA) AQUA Lat,Lon GOES-15 Lat,Lon Distance(km) Time Diff (sec)
1 07/09/2017 10:31:42 -0.41,-134.14 -0.14,-135.35 137.42 80
2 07/09/2017 22:53:07 -0.67,-139.34 0.16,-135.37 451.39 80
3 07/11/2017 10:19:30 -1.01,-131.18 -0.14,-135.31 469.61 80
4 07/11/2017 22:40:55 -0.07,-136.38 0.16,-135.33 119.17 80
5 07/13/2017 22:28:43 0.53,-133.42 0.16,-135.29 212.50 80
6 07/14/2017 10:49:59 0.52,-138.58 -0.18,-135.25 378.26 80
7 07/16/2017 10:37:47 -0.08,-135.62 -0.17,-135.20 47.46 80
8 07/18/2017 10:25:35 -0.69,-132.66 -0.18,-135.15 282.48 80
9 07/18/2017 22:46:59 -0.37,-137.86 0.19,-135.15 307.67 80
10 07/20/2017 22:34:47 0.24,-134.90 0.20,-135.09 21.28 80




NCC Satellite Simultaneous Nadir Overpasses (SNOs) Prediction Service
